Tracking 20945 objects as of 9-Jul-2020
HD Live streaming from Space Station
objects crossing your sky now

SL-12 DEB

Track SL-12 DEB now!
10-day predictions


NORAD ID: 44559
Int'l Code: 2010-041AE
Perigee: 373.7 km
Apogee: 18,187.0 km
Inclination: 65.0 °
Period: 324.8 minutes
Semi major axis: 15651 km
RCS: Unknown
Launch date: September 2, 2010
Source: Commonwealth of Independent States (former USSR) (CIS)
Launch site: ()

Note: This is SATELLITE DEBRIS
aabbcc
Your satellite tracking list
Your tracking list is empty




NASA's NSSDC Master Catalog

Two Line Element Set (TLE):
1 44559U 10041AE  20190.31115021  .00025010  00000-0  14514-1 0  9993
2 44559  65.0456 166.8683 5690662  22.4118 354.7804  4.43378798 13812
Source of the keplerian elements: AFSPC